Chattanooga, TN

9:08 PM EST on February 06, 2016 (GMT -0500)
Lovell

Weather History for KCHA - August, 2013

Change the Weather History Date:

Sunday, August 4, 2013

  Actual Average Record
Temperature  
Mean Temperature 81 °F 80 °F  
Max Temperature 90 °F 90 °F 105 °F (1947)
Min Temperature 71 °F 70 °F 56 °F (1950)
Cooling Degree Days 16 15  
Month to date cooling degree days 56 60  
Year to date cooling degree days 1036 1064  
Since 1 June cooling degree days 860 868  
Growing Degree Days 32 (Base 50)    
Moisture  
Dew Point 67 °F    
Average Humidity 66    
Maximum Humidity 87    
Minimum Humidity 44    
Precipitation  
Precipitation 0.00 in 0.13 in 3.01 in (1969)
Month to date precipitation 0.00 0.52  
Year to date precipitation 47.63 32.30  
Snow  
Snow 0.00 in - - ()
Month to date snowfall 0.0  
Since 1 June snowfall 0.0  
Snow Depth 0.00 in    
Sea Level Pressure  
Sea Level Pressure 30.03 in    
Wind  
Wind Speed 6 mph (NNW)    
Max Wind Speed 17 mph    
Max Gust Speed 20 mph    
Visibility 10 miles    
Events      
T = Trace of Precipitation, MM = Missing Value Source: NWS Daily Summary

Daily Weather History Graph

Daily Weather History Graph

Search for Another Location

Airport or City:

Trip Planner

Search our weather history database for the weather conditions in past years. The results will help you decide how hot, cold, wet, or windy it might be!

Date:

Astronomy

Aug. 04, 2013 Rise Set
Actual Time 6:52 AM EDT 8:40 PM EDT
Civil Twilight 6:25 AM EDT 9:08 PM EDT
Nautical Twilight 5:51 AM EDT 9:41 PM EDT
Astronomical Twilight 5:16 AM EDT 10:16 PM EDT
Moon 4:53 AM EDT (8/4) 7:03 PM EDT (8/4)
Length of Visible Light 14h 43m
Length of Day
13h 48m
Waning Crescent, 5% of the Moon is Illuminated
Aug 4
Waning Crescent
Aug 6
New
Aug 14
First Quarter
Aug 20
Full
Aug 28
Last Quarter

Hourly Weather History & Observations

Time (EDT) Temp. Heat Index Dew Point Humidity Pressure Visibility Wind Dir Wind Speed Gust Speed Precip Events Conditions
12:53 AM 75.9 °F - 70.0 °F 82% 30.05 in 10.0 mi Calm Calm - N/A   Clear
1:53 AM 75.0 °F - 70.0 °F 84% 30.03 in 10.0 mi West 3.5 mph - N/A   Clear
2:53 AM 75.0 °F - 69.1 °F 82% 30.02 in 10.0 mi WSW 3.5 mph - N/A   Clear
3:53 AM 73.9 °F - 69.1 °F 85% 30.02 in 10.0 mi Calm Calm - N/A   Mostly Cloudy
4:53 AM 73.9 °F - 69.1 °F 85% 30.03 in 10.0 mi NNW 3.5 mph - N/A   Overcast
5:53 AM 73.9 °F - 69.1 °F 85% 30.04 in 10.0 mi NE 4.6 mph - N/A   Mostly Cloudy
6:31 AM 73.4 °F - 69.8 °F 88% 30.06 in 10.0 mi Calm Calm - N/A   Mostly Cloudy
6:53 AM 73.9 °F - 69.1 °F 85% 30.04 in 10.0 mi Calm Calm - N/A   Overcast
7:53 AM 73.9 °F - 70.0 °F 87% 30.05 in 10.0 mi SSW 3.5 mph - N/A   Mostly Cloudy
8:53 AM 78.1 °F - 70.0 °F 76% 30.06 in 10.0 mi West 3.5 mph - N/A   Mostly Cloudy
9:53 AM 80.1 °F 82.9 °F 69.1 °F 69% 30.05 in 10.0 mi NW 4.6 mph - N/A   Mostly Cloudy
10:53 AM 84.0 °F 89.0 °F 71.1 °F 65% 30.05 in 10.0 mi NW 5.8 mph - N/A   Mostly Cloudy
11:53 AM 84.0 °F 87.8 °F 69.1 °F 61% 30.06 in 10.0 mi NNW 10.4 mph - N/A   Mostly Cloudy
12:53 PM 86.0 °F 90.7 °F 70.0 °F 59% 30.04 in 10.0 mi NW 11.5 mph - N/A   Mostly Cloudy
1:53 PM 88.0 °F 92.1 °F 69.1 °F 53% 30.03 in 10.0 mi NNE 11.5 mph - N/A   Mostly Cloudy
2:53 PM 87.1 °F 91.3 °F 69.1 °F 55% 30.02 in 10.0 mi North 10.4 mph - N/A   Mostly Cloudy
3:53 PM 89.1 °F 91.0 °F 64.9 °F 45% 30.01 in 10.0 mi North 12.7 mph - N/A   Mostly Cloudy
4:53 PM 88.0 °F 89.6 °F 64.9 °F 46% 30.00 in 10.0 mi NNW 10.4 mph - N/A   Mostly Cloudy
5:53 PM 87.1 °F 88.3 °F 64.0 °F 46% 30.00 in 10.0 mi NNW 9.2 mph - N/A   Mostly Cloudy
6:53 PM 86.0 °F 86.8 °F 63.0 °F 46% 30.00 in 10.0 mi NNW 9.2 mph - N/A   Mostly Cloudy
7:53 PM 82.0 °F 83.1 °F 63.0 °F 52% 30.01 in 10.0 mi NW 8.1 mph - N/A   Mostly Cloudy
8:53 PM 79.0 °F - 63.0 °F 58% 30.02 in 10.0 mi NNW 4.6 mph - N/A   Scattered Clouds
9:53 PM 75.9 °F - 62.1 °F 62% 30.04 in 10.0 mi NNW 4.6 mph - N/A   Scattered Clouds
10:53 PM 75.9 °F - 62.1 °F 62% 30.06 in 10.0 mi North 6.9 mph - N/A   Partly Cloudy
11:53 PM 73.9 °F - 62.1 °F 66% 30.07 in 10.0 mi NNE 5.8 mph - N/A   Partly Cloudy